User: anonymous
Location: Unspecified
(0.0000°N, 0.0000°E)
Time: 07:02:33
(UTC+00:00)
Language:

ISS - Orbit

View from above orbital plane
View from above orbital plane
View from above satellite
View from above satellite

Ground track
Ground track

The orbit data is extracted from the following two-line orbital elements,

1 25544U 98067A   14211.23174766  .00003481  00000-0  67846-4 0  7972
2 25544 051.6479 246.2229 0006364 309.1399 168.2714 15.50475550898005
Epoch (UTC): 30 July 2014 05:33:42
Eccentricity: 0.0006364
inclination: 51.6479°
perigee height: 411 km
apogee height: 419 km
right ascension of ascending node: 246.2229°
argument of perigee: 309.1399°
revolutions per day: 15.50475550
mean anomaly at epoch: 168.2714°
orbit number at epoch: 89800

The dashed part of the orbit path shows where the satellite is in the earth's shadow,  

DLR